This demonstration page uses our WeatherBlox Daily Observations layout. Learn more.

Left ArrowRight Arrow

Hourly Observations for July 25, 2016

Temp ( °F °C ) Dew Point ( °F °C ) Humidity (%) Winds ( mph kmh ) Pressure ( in mb ) Visibility ( mi km ) Precip ( " mm )
12:53 am 00:53 Clear 78 25.6 75 23.9 90 90 N N/A 29.97 1015 8 13 N/A
1:53 am 01:53 Clear 79 26.1 74 23.3 85 85 W 5 7 29.98 1015 9 14 N/A
2:53 am 02:53 Clear 79 26.1 75 23.9 88 88 N N/A 29.98 1015 8 13 N/A
3:53 am 03:53 Clear 77 25 74 23.3 90 90 N N/A 29.98 1015 7 11 N/A
4:53 am 04:53 Clear 76 24.4 73 22.8 91 91 NW 5 7 29.97 1015 7 11 N/A
5:53 am 05:53 Clear 76 24.4 74 23.3 94 94 N N/A 29.97 1015 7 11 N/A
6:53 am 06:53 Sunny with Mist and Fog 78 25.6 74 23.3 87 87 W 3 6 29.97 1015 6 10 N/A
7:53 am 07:53 Sunny with Mist and Fog 79 26.1 75 23.9 88 88 N N/A 29.99 1016 6 10 N/A
8:53 am 08:53 Sunny 82 27.8 75 23.9 79 79 W 6 9 29.98 1015 8 13 N/A
9:53 am 09:53 Sunny 85 29.4 75 23.9 72 72 SW 6 9 29.98 1015 9 14 N/A
10:53 am 10:53 Sunny 87 30.6 74 23.3 65 65 W 7 11 30.00 1016 10 16 N/A
11:40 am 11:40 Mostly Cloudy 88 31.1 74 23.3 63 63 NW 12 19 30.00 1016 10 16 N/A
11:53 am 11:53 Partly Cloudy 88 31.1 74 23.3 63 63 NW 8 13 30.00 1016 10 16 N/A
12:53 pm 12:53 Mostly Sunny 90 32.2 74 23.3 59 59 WNW 8 13 30.00 1016 10 16 N/A
1:53 pm 13:53 Mostly Cloudy 90 32.2 72 22.2 56 56 NW 13 20 29.98 1015 10 16 N/A
2:53 pm 14:53 Sunny 93 33.9 70 21.1 47 47 NW 9 15 29.97 1015 10 16 N/A
3:53 pm 15:53 Sunny 93 33.9 67 19.4 42 42 NW 9 15 29.96 1014 10 16 N/A
4:53 pm 16:53 Sunny 93 33.9 69 20.6 46 46 NW 13 20 29.95 1014 10 16 N/A
5:53 pm 17:53 Sunny 92 33.3 67 19.4 44 44 NNW 8 13 29.95 1014 10 16 N/A
6:53 pm 18:53 Sunny 89 31.7 69 20.6 52 52 NW 7 11 29.95 1014 10 16 N/A
7:53 pm 19:53 Sunny 87 30.6 69 20.6 55 55 NNW 8 13 29.96 1015 10 16 N/A
8:53 pm 20:53 Sunny 83 28.3 70 21.1 65 65 NW 5 7 29.97 1015 10 16 N/A
9:53 pm 21:53 Clear 79 26.1 71 21.7 77 77 WNW 3 6 29.98 1015 10 16 N/A
10:53 pm 22:53 Clear 78 25.6 71 21.7 79 79 N N/A 29.98 1015 10 16 N/A
11:53 pm 23:53 Clear 76 24.4 72 22.2 88 88 N N/A 29.98 1015 10 16 N/A

Powered by AerisWeather